Regional Weather Roundup
Issued by NWS

Home | Current Version | Previous Version | Graphics & Text | Print | Product List | Glossary On
Versions: 1 2 3 4 5 6 7 8 9 10 11 12 13 14 15 16 17 18 19 20 21 22 23 24 25 26 27 28 29 30 31 32 33 34 35 36 37 38 39 40 41 42 43 44 45 46 47 48 49 50
322
ASUS43 KDMX 191706
RWRIA

WEATHER ROUNDUP FOR IOWA
NATIONAL WEATHER SERVICE DES MOINES IA
1200 PM CDT TUE SEP 19 2017

NOTE: "FAIR" INDICATES FEW OR NO CLOUDS BELOW 12,000 FEET WITH NO
SIGNIFICANT WEATHER AND/OR OBSTRUCTIONS TO VISIBILITY.

* - THESE STATIONS ARE NOT NWS STATIONS...THUS NOT UNDER NWS
QUALITY CONTROL.  THEY ALSO DO NOT REPORT WEATHER SUCH
AS PRECIPITATION OR FOG.

IAZ001>003-012>014-020>022-031>034-043>046-191800-
   NORTHWEST IOWA

CITY           SKY/WX    TMP DP  RH WIND       PRES   REMARKS
CARROLL *      CLOUDY    72  66  83 SE15G23   29.83F
CHEROKEE *     CLOUDY    71  68  90 SE12G18   29.81F
DENISON *      PTSUNNY   75  70  83 S13       29.82F
LE MARS *      CLOUDY    72  68  88 SE14G21   29.76F
ORANGE CITY *  CLOUDY    72  68  88 S13       29.78F
SHELDON *      CLOUDY    70  66  88 SE13G22   29.78F
SIOUX CITY     PTSUNNY   76  70  82 SE14G21   29.74F
SPENCER        CLOUDY    72  66  81 SE20G26   29.82S
STORM LAKE *   SUNNY     68  66  94 SE16G22   29.82F
$$

IAZ055>058-069>071-079>083-090>094-191800-
   SOUTHWEST IOWA

CITY           SKY/WX    TMP DP  RH WIND       PRES   REMARKS
ATLANTIC *     MOSUNNY   75  68  78 SE15      29.82F
AUDUBON *      CLOUDY    73  68  83 SE13      29.85F
CLARINDA *     SUNNY     79  70  73 SE10      29.85F HX  81
COUNCIL BLFS * SUNNY     79  72  78 SE18G24   29.79F HX  82
CRESTON *      PTSUNNY   73 -36   1 SE10G16   29.90S
HARLAN  *      MOSUNNY   79  70  73 SE14      29.84F HX  81
LAMONI         PTSUNNY   72  68  87 SE7       29.90F
RED OAK *      SUNNY     79  70  73 SE12G18   29.81F HX  81
SHENANDOAH *   SUNNY     82  70  65 SE15G22   29.80F HX  86
$$

IAZ047>049-059>061-072>074-084-191800-
   CENTRAL IOWA

CITY           SKY/WX    TMP DP  RH WIND       PRES   REMARKS
AMES           CLOUDY    73  68  84 SE18G24   29.88F
ANKENY *       MOSUNNY   75  66  73 S13       29.89F
BOONE *        PTSUNNY   73  66  78 SE14G20   29.87F
CHARITON *     PTSUNNY   75  70  83 SE10G17   29.90F
DES MOINES     PTSUNNY   74  67  78 E10       29.88F
GRINNELL*      CLOUDY    72  66  81 SE13      29.94S
KNOXVILLE *    PTSUNNY   73  66  78 SE12      29.89F
MARSHALLTOWN   CLOUDY    74  67  78 SE14      29.91S
NEWTON *       PTSUNNY   73  66  78 SE14      29.92S
PELLA *        MOSUNNY   72  71  95 SE8       29.92F
PERRY *        CLOUDY    72  68  88 SE13      29.87F
$$

IAZ004>006-015-016-023>025-035-036-191800-
   NORTH CENTRAL IOWA

CITY           SKY/WX    TMP DP  RH WIND       PRES   REMARKS
ALGONA *       CLOUDY    72  66  83 SE16G22   29.86F
CLARION *      PTSUNNY   75  68  78 SE18      29.88F
ESTHERVILLE    CLOUDY    68  65  90 SE20G26   29.83F
FORT DODGE *   PTSUNNY   72  65  78 SE15G21   29.86F
MASON CITY     MOSUNNY   75  64  68 S16G22    29.91F
FOREST CITY *  CLOUDY    73  66  78 SE16      29.89F
IOWA FALLS *   PTSUNNY   76  66  71 SE15G22   29.91F
$$

IAZ007>011-017>019-026>030-037>042-050>054-066-191800-
   NORTHEAST IOWA

CITY           SKY/WX    TMP DP  RH WIND       PRES   REMARKS
CEDAR RAPIDS   CLOUDY    67  66  97 SE9       29.95S FOG
CHARLES CITY * MOSUNNY   73  66  78 SE14G21   29.92F
CLINTON *      CLOUDY    68  64  87 E7        29.97F
DECORAH *      MOSUNNY   70  63  78 SE9       29.94F
DUBUQUE        SUNNY     72  63  73 E6        29.97F
MONTICELLO *   MOSUNNY   72  66  83 CALM      29.95F
OELWEIN *      SUNNY     72  68  88 SE9       29.95F
WATERLOO       MOSUNNY   71  64  78 SE10      29.92F
$$

IAZ064-065-067-068-078-191800-
   EAST CENTRAL IOWA

CITY           SKY/WX    TMP DP  RH WIND       PRES   REMARKS
DAVENPORT      SUNNY     73  64  73 E7        29.97F
IOWA CITY      CLOUDY    71  67  87 SE9       29.96F FOG
MT. PLEASANT * CLOUDY    69  69 100 E6        29.96F FOG
MUSCATINE *    PTSUNNY   72  66  83 E6        29.96F
QUAD CITIES    SUNNY     75  64  68 E8        29.95F
$$

IAZ062-063-075>077-085>089-095>099-191800-
   SOUTHEAST IOWA

CITY           SKY/WX    TMP DP  RH WIND       PRES   REMARKS
BURLINGTON     CLOUDY    70  68  93 CALM      29.96S FOG
FAIRFIELD *    MOSUNNY   72  72 100 SE8       29.94F
FORT MADISON * PTSUNNY   72  70  94 E6        29.96F
KEOKUK *       CLOUDY    72  68  88 E5        29.95S
OSKALOOSA *      N/A     72  70  91 SE8       29.93F
CENTERVILLE *    N/A     77  70  78 S8        29.94S
OTTUMWA        SUNNY     75  66  73 SE12      29.92F
WASHINGTON *   CLOUDY    70  70 100 VRB6      29.96F
$$

ABBREVIATIONS USED IN REMARKS
   TC - TEMPERATURES IN CELSIUS
  WCI - WIND CHILL INDEX
   HX - HEAT INDEX
  VSB - VISIBILITY
$$





USA.gov is the U.S. government's official web portal to all federal, state and local government web resources and services.